Airfield :
LOGIN :

Register | Disclaimer

   EN    FR    IT 

 










Legend :    VFR   Marginal VFR   IFR   Intensive IFR   Very Intensive IFR
Visi :
Ceiling :
>= 8 km
>= 3000ft
5 to 8 km
1000 to 3000 ft
1500m to 5 km
500 to 1000 ft
800 to 1500m
200 to 500 ft
< 800m
< 200 ft
Symbols :   Thunderstorms  Fog  Heavy snow  Heavy precipitations  Wind > 20 kt
SIGMETs :     Misc.  Thunderstorms  Icing  Turbulence  Mountain Waves  Volcanic Ashes






- Airport Elevation : 160 ft
- IATA code : SRP


ENSO - Stord

CURRENT METAR :
  • 180620Z 11002KT 9999 FEW010 BKN030 12/12 Q1007

EXPIRED METARs :
  • 180550Z 08003KT 9999 FEW010 BKN025 11/11 Q1007
  • 180520Z 34002KT 9999 FEW010 BKN028 11/11 Q1006
  • 180450Z 10003KT 9999 FEW012 SCT035 11/11 Q1006
  • 180420Z 09005KT 9999 FEW010 SCT030 11/11 Q1006

Expired Forecast.



MET'MAP, your aeronautical weather chart ! - Copyright ORBIFLY December 2007 - Disclaimer

ORBIFLY MET'MAP TEAM :

Programming & Development : Alexandra Zaïnal
Original concept : Baudouin d'Aumeries
Technical & hardware support : Manuel Goepfert
Assistance : Marc-Olivier Méhu




SOURCES & CREDITS :

   NOAA